FW7688 Weather Reports


Display with metric or nautical units.
time (UTC)temp
F
wind
direction
speed
MPH
gust
MPH
rain 1hr
in
rain 24hr
in
rain mn
in
humidity
%
barometer
mb
20260504120103 52 258 0.0 4.0 0.00 0.00 0.00 57 1014.6
20260504081514 44 288 0.0 0.0 0.00 0.00 0.00 68 1013.9
20260504050024 40 60 0.0 0.0 0.00 0.00 0.00 81 1013.7
20260504044532 40 60 0.0 0.0 0.00 0.00 0.00 79 1013.6
20260504043041 41 60 0.0 0.0 0.00 0.00 0.00 77 1013.6
20260504041514 41 60 0.0 0.0 0.00 0.00 0.00 75 1013.5
20260504040008 41 60 0.0 0.0 0.00 0.00 0.00 73 1013.5
20260504034503 42 60 0.0 0.0 0.00 0.00 0.00 73 1013.4
20260504033106 42 60 0.0 0.0 0.00 0.00 0.00 73 1013.3
20260504031604 43 60 0.0 0.0 0.00 0.00 0.00 72 1013.5
20260504030057 43 60 0.0 0.0 0.00 0.00 0.00 71 1013.3
20260504024630 43 60 0.0 0.0 0.00 0.00 0.00 70 1013.3
20260504023053 43 60 0.0 0.0 0.00 0.00 0.00 70 1013.3
20260504021556 43 60 0.0 0.0 0.00 0.00 0.00 68 1013.3
20260504014550 45 60 0.0 0.0 0.00 0.00 0.00 64 1013.2
20260504013052 45 60 0.0 0.0 0.00 0.00 0.00 60 1013.2
20260504011546 46 60 0.0 0.0 0.00 0.00 0.00 58 1013.1
20260504010037 46 60 0.0 0.0 0.00 0.00 0.00 59 1012.9
20260504004538 47 340 0.0 0.0 0.00 0.00 0.00 56 1012.5
20260504003036 48 340 0.0 0.0 0.00 0.00 0.00 54 1012.4
20260504001537 49 340 0.0 0.0 0.00 0.00 0.00 52 1012.2
20260504000038 50 10 0.0 1.0 0.00 0.00 0.00 51 1012.0
20260503234529 50 194 0.0 0.0 0.00 0.00 0.00 51 1011.8
20260503233052 50 272 0.0 0.0 0.00 0.00 0.00 49 1011.5
20260503231527 51 154 0.0 0.0 0.00 0.00 0.00 46 1011.4
20260503230025 51 154 0.0 0.0 0.00 0.00 0.00 44 1011.2
20260503224527 52 48 0.0 3.0 0.00 0.00 0.00 42 1011.1
20260503223024 53 276 1.0 6.0 0.00 0.00 0.00 40 1010.9
20260503221523 53 353 0.0 3.0 0.00 0.00 0.00 41 1010.8
20260503220022 53 70 0.0 3.0 0.00 0.00 0.00 39 1010.9
20260503214537 54 87 0.0 4.0 0.00 0.00 0.00 38 1010.9
20260503213021 54 262 1.0 4.0 0.00 0.00 0.00 40 1010.7
20260503211518 54 214 2.0 4.0 0.00 0.00 0.00 38 1010.8
20260503210019 54 189 0.0 8.0 0.00 0.00 0.00 39 1010.8
20260503204516 54 238 0.0 4.0 0.00 0.00 0.00 41 1010.8
20260503203015 53 226 1.0 4.0 0.00 0.00 0.00 42 1010.7
20260503201516 53 226 0.0 5.0 0.00 0.00 0.00 41 1011.0
20260503200013 53 153 0.0 4.0 0.00 0.00 0.00 43 1011.1
20260503194510 53 13 0.0 3.0 0.00 0.00 0.00 42 1011.1
20260503193009 52 140 0.0 5.0 0.00 0.00 0.00 44 1011.4
20260503191516 53 330 1.0 7.0 0.00 0.00 0.00 41 1011.5
20260503190012 55 330 0.0 5.0 0.00 0.00 0.00 44 1011.5
20260503184624 55 238 1.0 6.0 0.00 0.00 0.00 41 1011.7
20260503183040 54 162 2.0 6.0 0.00 0.00 0.00 44 1011.8
20260503181538 53 133 0.0 5.0 0.00 0.00 0.00 43 1011.8
20260503180048 52 39 1.0 6.0 0.00 0.00 0.00 46 1011.8
20260503174544 52 215 1.0 4.0 0.00 0.00 0.00 45 1012.0
20260503174513 52 98 1.0 4.0 0.00 0.00 0.00 45 1011.9
20260503173039 51 293 0.0 6.0 0.00 0.00 0.00 47 1012.0
20260503171528 53 221 2.0 5.0 0.00 0.00 0.00 42 1012.1